Regional Weather Roundup
Issued by NWS

Home | Current Version | Previous Version | Text Only | Print | Product List | Glossary On
Versions: 1 2 3 4 5 6 7 8 9 10 11 12 13 14 15 16 17 18 19 20 21 22 23 24 25 26 27 28 29 30 31 32 33 34 35 36 37 38 39 40 41 42 43 44 45 46 47 48 49 50
000
ASCA42 TJSJ 251410
RWRPR
PUERTO RICO/U.S. VIRGIN ISLANDS HOURLY WEATHER ROUNDUP
NATIONAL WEATHER SERVICE SAN JUAN PR
1000 AM AST SAT MAR 25 2017

PRZ001>002-007>008-010-251500-
PUERTO RICO

CITY           SKY/WX    TMP DP  RH WIND       PRES   REMARKS
SAN JUAN LMM   PTSUNNY   79  73  83 VRB6      29.97R
AGUADILLA      PTSUNNY   79  70  73 SE3       29.96R
CEIBA          CLOUDY    77  73  88 S13       30.02R
$$

VIZ001>002-251500-
U.S. VIRGIN ISLANDS

CITY           SKY/WX    TMP DP  RH WIND       PRES   REMARKS
CHARLOTTE AMA  PTSUNNY   79  73  83 SE18      29.99R
CHRISTIANSTED  PTSUNNY   81  72  74 SE10      30.01R
$$

HOURLY WEATHER ROUNDUP FOR THE NEWS MEDIA

CITY           SKY/WX    TMP DP  RH WIND       PRES   REMARKS
ORLANDO        MOSUNNY   72  61  68 SE9       30.25R
NEW YORK       CLOUDY    55  42  61 SW3       30.17S
NEWARK         CLOUDY    55  39  54 N7        30.16R
CHICAGO        LGT RAIN  42  39  89 NE13      30.06R FOG
HARTFORD       CLOUDY    46  38  73 NE9       30.18R
BOSTON         CLOUDY    40  36  86 NE8       30.23R WCI  34
DALLAS         MOSUNNY   57  44  62 NW13      30.03R
PHILADELPHIA   CLOUDY    58  47  66 SW12      30.17S
LOS ANGELES    MOCLDY    57  52  83 W10       30.11S
WASHINGTON DC  CLOUDY    64  48  56 S8        30.19F


USA.gov is the U.S. government's official web portal to all federal, state and local government web resources and services.